Change the Weather History Date:

Sunday, February 10, 2013

  Actual Average (KHSV) Record (KHSV)
Temperature  
Mean Temperature 52 °F 44 °F  
Max Temperature 57 °F 55 °F 76 °F (1938)
Min Temperature 48 °F 34 °F 9 °F (1971)
Degree Days  
Heating Degree Days 12 21  
Month to date heating degree days 215  
Since 1 July heating degree days 2125  
Cooling Degree Days 0 0  
Month to date cooling degree days 0  
Year to date cooling degree days 0  
Growing Degree Days 2 (Base 50)    
Moisture  
Dew Point 45 °F    
Average Humidity 79    
Maximum Humidity 98    
Minimum Humidity 53    
Precipitation  
Precipitation 0.91 in 0.17 in 4.04 in (1994)
Month to date precipitation 1.68  
Year to date precipitation 6.57  
Snow  
Snow 0.00 in - - ()
Month to date snowfall  
Since 1 July snowfall  
Snow Depth -    
Sea Level Pressure  
Sea Level Pressure 30.06 in    
Wind  
Wind Speed 8 mph (SE)    
Max Wind Speed 16 mph    
Max Gust Speed 28 mph    
Visibility 9 miles    
Events Rain , Thunderstorm    
T = Trace of Precipitation, MM = Missing Value Source: NWS Daily Summary

Daily Weather History Graph

Daily Weather History Graph

Search for Another Location

Airport or City:

Trip Planner

Search our weather history database for the weather conditions in past years. The results will help you decide how hot, cold, wet, or windy it might be!

Date:

Astronomy

Feb. 10, 2013 Rise Set
Actual Time 6:37 AM CST 5:26 PM CST
Civil Twilight 6:11 AM CST 5:52 PM CST
Nautical Twilight 5:41 AM CST 6:22 PM CST
Astronomical Twilight 5:12 AM CST 6:51 PM CST
Moon 6:29 AM CST (2/10) 6:12 PM CST (2/10)
Length of Visible Light 11h 41m
Length of Day
10h 49m
New Moon, 0% of the Moon is Illuminated
Feb 10
New Moon
Feb 17
First Quarter
Feb 25
Full
Mar 4
Last Quarter
Mar 11
New

Hourly Weather History & Observations

Time (CST) Temp. Dew Point Humidity Pressure Visibility Wind Dir Wind Speed Gust Speed Precip Events Conditions
12:15 AM 49.3 °F 33.8 °F 55% 30.18 in 10.0 mi SE 5.8 mph - N/A   Clear
12:35 AM 49.6 °F 33.8 °F 54% 30.19 in 10.0 mi SE 3.5 mph - N/A   Clear
12:55 AM 49.8 °F 33.4 °F 53% 30.19 in 10.0 mi ESE 5.8 mph - N/A   Clear
1:15 AM 49.3 °F 33.4 °F 54% 30.18 in 10.0 mi ESE 4.6 mph - N/A   Clear
1:35 AM 48.6 °F 33.8 °F 57% 30.18 in 10.0 mi SE 5.8 mph - N/A   Clear
1:55 AM 48.6 °F 33.8 °F 57% 30.17 in 10.0 mi SE 5.8 mph - N/A   Clear
2:35 AM 48.9 °F 34.2 °F 57% 30.17 in 10.0 mi SE 5.8 mph - N/A   Clear
2:55 AM 49.3 °F 34.3 °F 56% 30.18 in 10.0 mi SE 4.6 mph - N/A   Clear
3:15 AM 49.1 °F 34.3 °F 57% 30.18 in 10.0 mi SE 4.6 mph - N/A   Clear
3:35 AM 49.3 °F 34.7 °F 57% 30.16 in 10.0 mi ESE 5.8 mph - N/A   Clear
3:55 AM 49.3 °F 34.7 °F 57% 30.14 in 10.0 mi ESE 9.2 mph - N/A   Clear
4:15 AM 49.3 °F 34.5 °F 57% 30.13 in 10.0 mi ESE 8.1 mph - N/A   Clear
4:35 AM 49.1 °F 34.5 °F 57% 30.14 in 10.0 mi ESE 4.6 mph - N/A   Clear
4:55 AM 49.3 °F 34.2 °F 56% 30.15 in 10.0 mi SE 4.6 mph - N/A   Clear
5:15 AM 49.5 °F 34.0 °F 55% 30.14 in 10.0 mi SE 8.1 mph - N/A   Clear
5:35 AM 49.3 °F 34.0 °F 56% 30.13 in 10.0 mi SE 8.1 mph - N/A   Clear
5:55 AM 49.1 °F 34.0 °F 56% 30.11 in 10.0 mi SE 8.1 mph 18.4 mph N/A   Clear
6:15 AM 48.9 °F 34.0 °F 56% 30.12 in 10.0 mi SE 8.1 mph - N/A   Clear
6:35 AM 48.6 °F 34.2 °F 58% 30.13 in 10.0 mi SE 9.2 mph - N/A   Clear
6:55 AM 49.1 °F 34.5 °F 57% 30.13 in 10.0 mi SE 9.2 mph 17.3 mph N/A   Scattered Clouds
7:15 AM 49.3 °F 34.9 °F 58% 30.15 in 10.0 mi SE 6.9 mph - N/A   Clear
7:35 AM 49.6 °F 35.6 °F 59% 30.15 in 10.0 mi SSE 9.2 mph - N/A   Clear
7:55 AM 50.5 °F 36.9 °F 59% 30.14 in 10.0 mi SE 9.2 mph - N/A   Clear
8:15 AM 50.5 °F 37.6 °F 61% 30.13 in 10.0 mi SE 9.2 mph 18.4 mph N/A   Clear
8:35 AM 50.9 °F 38.3 °F 62% 30.13 in 10.0 mi SE 10.4 mph 16.1 mph N/A   Clear
8:55 AM 50.9 °F 38.7 °F 63% 30.12 in 10.0 mi SE 11.5 mph 19.6 mph N/A   Mostly Cloudy
9:15 AM 50.9 °F 38.8 °F 63% 30.13 in 10.0 mi SSE 11.5 mph 19.6 mph N/A   Overcast
9:35 AM 51.3 °F 39.4 °F 64% 30.12 in 10.0 mi ESE 12.7 mph 21.9 mph N/A   Overcast
9:55 AM 51.1 °F 39.9 °F 66% 30.12 in 10.0 mi SE 9.2 mph 19.6 mph N/A   Overcast
10:15 AM 51.3 °F 40.1 °F 66% 30.11 in 10.0 mi SE 9.2 mph 16.1 mph N/A   Overcast
10:35 AM 49.8 °F 42.1 °F 75% 30.10 in 7.0 mi SE 8.1 mph - 0.01 in Rain , Thunderstorm Rain
10:55 AM 48.9 °F 43.3 °F 81% 30.09 in 10.0 mi SSE 5.8 mph - 0.01 in   Mostly Cloudy
11:15 AM 49.3 °F 43.5 °F 81% 30.08 in 10.0 mi SE 10.4 mph 16.1 mph N/A Rain Rain
11:35 AM 48.6 °F 45.0 °F 87% 30.08 in 4.0 mi SSE 8.1 mph - 0.06 in Rain Rain
11:55 AM 48.2 °F 46.2 °F 93% 30.06 in 7.0 mi SE 8.1 mph - 0.09 in Rain Light Rain
12:15 PM 48.6 °F 46.9 °F 94% 30.03 in 10.0 mi SE 6.9 mph - 0.01 in Rain , Thunderstorm Light Thunderstorms and Rain
12:35 PM 49.1 °F 47.5 °F 94% 30.04 in 7.0 mi SE 8.1 mph - 0.04 in Rain Heavy Rain
12:55 PM 49.3 °F 48.2 °F 96% 30.00 in 4.0 mi ESE 10.4 mph - 0.13 in Rain Light Rain
1:15 PM 49.5 °F 48.2 °F 95% 29.97 in 7.0 mi ESE 11.5 mph 18.4 mph 0.01 in Rain , Thunderstorm Light Thunderstorms and Rain
1:35 PM 49.5 °F 48.2 °F 95% 29.98 in 3.0 mi SE 9.2 mph 16.1 mph 0.05 in Rain , Thunderstorm Heavy Thunderstorms and Rain
1:55 PM 49.8 °F 48.7 °F 96% 30.00 in 1.8 mi ESE 10.4 mph 16.1 mph 0.24 in Rain Heavy Rain
2:15 PM 50.0 °F 49.1 °F 97% 29.99 in 4.0 mi SE 8.1 mph 16.1 mph 0.05 in Rain , Thunderstorm Light Thunderstorms and Rain
2:35 PM 50.2 °F 49.3 °F 97% 30.03 in 4.0 mi South 8.1 mph - 0.10 in Rain Heavy Rain
2:55 PM 50.4 °F 49.8 °F 98% 30.04 in 3.0 mi South 9.2 mph - 0.23 in Rain Rain
3:15 PM 50.5 °F 50.0 °F 98% 30.03 in 4.0 mi SSE 9.2 mph 18.4 mph 0.05 in Rain Heavy Rain
3:35 PM 50.9 °F 50.4 °F 98% 30.02 in 5.0 mi SSE 9.2 mph - 0.09 in Rain Light Rain
3:55 PM 52.0 °F 51.1 °F 97% 30.01 in 10.0 mi ESE 11.5 mph 21.9 mph 0.11 in Rain Light Rain
4:15 PM 52.7 °F 51.1 °F 94% 30.02 in 10.0 mi SE 6.9 mph - N/A Rain Rain
4:35 PM 52.0 °F 51.1 °F 97% 30.01 in 7.0 mi SSE 6.9 mph - 0.02 in Rain Light Rain
4:55 PM 52.3 °F 51.3 °F 96% 30.02 in 7.0 mi SSE 5.8 mph - 0.05 in Rain Rain
5:15 PM 52.3 °F 51.4 °F 97% 30.00 in 10.0 mi SE 11.5 mph 17.3 mph 0.03 in Rain Light Rain
5:35 PM 52.3 °F 51.4 °F 97% 29.99 in 10.0 mi SE 13.8 mph 19.6 mph 0.03 in   Light Drizzle
5:55 PM 52.3 °F 51.6 °F 97% 29.97 in 10.0 mi SSE 16.1 mph 23.0 mph 0.04 in Rain Light Rain
6:15 PM 52.9 °F 52.0 °F 97% 29.95 in 10.0 mi SSE 15.0 mph 26.5 mph 0.01 in Rain Light Rain
6:35 PM 53.6 °F 52.9 °F 97% 29.94 in 10.0 mi SSE 16.1 mph 27.6 mph 0.01 in   Mostly Cloudy
6:55 PM 54.1 °F 53.4 °F 97% 29.95 in 10.0 mi SSE 13.8 mph 23.0 mph 0.01 in   Mostly Cloudy
7:15 PM 54.7 °F 54.0 °F 97% 29.96 in 10.0 mi South 16.1 mph - N/A   Mostly Cloudy
7:35 PM 55.2 °F 54.5 °F 97% 29.96 in 10.0 mi South 13.8 mph - N/A   Scattered Clouds
7:55 PM 55.6 °F 54.5 °F 96% 29.96 in 10.0 mi South 12.7 mph - N/A   Clear
8:15 PM 55.8 °F 54.5 °F 96% 29.97 in 10.0 mi South 11.5 mph 18.4 mph N/A   Clear
8:35 PM 55.8 °F 54.5 °F 96% 29.97 in 10.0 mi South 10.4 mph - N/A   Clear
8:55 PM 55.6 °F 54.5 °F 96% 29.98 in 10.0 mi South 13.8 mph - N/A   Scattered Clouds
9:15 PM 55.9 °F 54.7 °F 96% 29.99 in 10.0 mi South 11.5 mph 17.3 mph N/A   Mostly Cloudy
9:35 PM 56.3 °F 55.0 °F 96% 30.00 in 10.0 mi South 12.7 mph - N/A   Overcast
9:55 PM 56.5 °F 55.4 °F 96% 30.00 in 10.0 mi South 11.5 mph - N/A   Light Drizzle
10:15 PM 57.0 °F 55.6 °F 95% 29.99 in 10.0 mi South 12.7 mph 16.1 mph N/A   Overcast
10:35 PM 57.2 °F 55.8 °F 95% 29.99 in 10.0 mi South 11.5 mph - N/A   Overcast
10:55 PM 57.4 °F 56.3 °F 96% 29.99 in 10.0 mi South 10.4 mph 17.3 mph N/A   Overcast
11:15 PM 57.7 °F 56.7 °F 96% 29.99 in 10.0 mi South 11.5 mph - N/A   Overcast
11:35 PM 57.7 °F 56.8 °F 97% 29.99 in 10.0 mi South 10.4 mph - N/A   Overcast
11:55 PM 57.7 °F 56.8 °F 97% 30.00 in 10.0 mi South 9.2 mph - N/A Rain Light Rain